RYR15ZZ EIDW-LPMA

Flight info

Callsign RYR15ZZ
Flight time N/A
Altitude 34000
Route PELIG2J PELIG DCT LASNO/M076F340 T9 BEGAS/N0434F340 DCT RIPEL DCT LIDRO
Aircraft B738/M-SDE2E3FGHIRWXY/LB1

Departure

Time 2026-05-06 05:50
Airport Dublin Airport (EIDW)

Arrival

Time N/A
Airport Cristiano Ronaldo International Airport (LPMA)
Time Latitude Longitude Altitude Speed Heading
2026-05-06 05:09 53.43012 -6.25009 210 ft 0 kts
2026-05-06 05:41 53.43004 -6.25010 210 ft 2 kts
2026-05-06 05:42 53.42987 -6.25012 213 ft 2 kts
2026-05-06 05:42 53.42971 -6.25014 212 ft 2 kts
2026-05-06 05:42 53.42956 -6.25006 210 ft 2 kts 299°
2026-05-06 05:42 53.42951 -6.24981 214 ft 2 kts 279°
2026-05-06 05:43 53.42950 -6.24974 211 ft 0 kts 278°
2026-05-06 05:45 53.42950 -6.24976 211 ft 1 kts 278°
2026-05-06 05:45 53.42953 -6.25011 210 ft 6 kts 279°
2026-05-06 05:45 53.42961 -6.25105 210 ft 11 kts 277°
2026-05-06 05:46 53.42957 -6.25253 213 ft 15 kts 250°
2026-05-06 05:46 53.42992 -6.25385 210 ft 14 kts 332°
2026-05-06 05:46 53.43082 -6.25452 211 ft 14 kts 336°
2026-05-06 05:46 53.43182 -6.25523 214 ft 17 kts 337°
2026-05-06 05:47 53.43300 -6.25611 216 ft 20 kts 336°
2026-05-06 05:47 53.43397 -6.25632 212 ft 13 kts 46°
2026-05-06 05:47 53.43402 -6.25460 219 ft 17 kts 96°
2026-05-06 05:47 53.43389 -6.25245 218 ft 20 kts 96°
2026-05-06 05:48 53.43376 -6.24993 210 ft 23 kts 95°
2026-05-06 05:48 53.43360 -6.24710 218 ft 26 kts 95°
2026-05-06 05:48 53.43344 -6.24420 220 ft 24 kts 95°
2026-05-06 05:48 53.43328 -6.24133 216 ft 24 kts 95°
2026-05-06 05:49 53.43324 -6.23904 210 ft 18 kts 69°
2026-05-06 05:49 53.43438 -6.23848 208 ft 19 kts
2026-05-06 05:49 53.43494 -6.24029 213 ft 25 kts 276°
2026-05-06 05:49 53.43535 -6.24764 212 ft 102 kts 275°
2026-05-06 05:50 53.43624 -6.26332 282 ft 159 kts 276°
2026-05-06 05:50 53.43732 -6.28206 1113 ft 163 kts 276°
2026-05-06 05:50 53.43932 -6.30094 1996 ft 171 kts 295°
2026-05-06 05:50 53.44694 -6.31799 2582 ft 193 kts 313°
2026-05-06 05:51 53.45646 -6.33407 3456 ft 195 kts 314°
2026-05-06 05:51 53.46602 -6.35038 4280 ft 195 kts 314°
2026-05-06 05:51 53.47439 -6.36846 4991 ft 202 kts 304°
2026-05-06 05:51 53.48242 -6.38884 5472 ft 215 kts 304°
2026-05-06 05:52 53.49105 -6.41031 5970 ft 228 kts 305°
2026-05-06 05:52 53.50029 -6.43278 6476 ft 240 kts 306°
2026-05-06 05:52 53.50860 -6.45778 6879 ft 255 kts 287°
2026-05-06 05:52 53.50907 -6.48808 7199 ft 269 kts 257°
2026-05-06 05:53 53.50206 -6.51770 7775 ft 277 kts 244°
2026-05-06 05:53 53.49314 -6.54633 8615 ft 277 kts 243°
2026-05-06 05:53 53.48414 -6.57495 9483 ft 277 kts 244°
2026-05-06 05:53 53.47525 -6.60382 10249 ft 280 kts 244°
2026-05-06 05:54 53.46637 -6.63298 10981 ft 282 kts 244°
2026-05-06 05:54 53.45643 -6.66159 11714 ft 285 kts 240°
2026-05-06 05:54 53.44557 -6.69038 12073 ft 303 kts 239°
2026-05-06 05:54 53.43379 -6.72109 12261 ft 324 kts 239°
2026-05-06 05:55 53.42119 -6.75395 12489 ft 343 kts 239°
2026-05-06 05:55 53.40817 -6.78800 13047 ft 350 kts 239°
2026-05-06 05:55 53.39500 -6.82252 13779 ft 353 kts 239°
2026-05-06 05:55 53.38177 -6.85731 14456 ft 355 kts 239°
2026-05-06 05:56 53.36849 -6.89225 15106 ft 358 kts 239°
2026-05-06 05:56 53.35506 -6.92762 15713 ft 361 kts 239°
2026-05-06 05:56 53.34152 -6.96324 16340 ft 364 kts 239°
2026-05-06 05:56 53.32787 -6.99914 16960 ft 368 kts 239°
2026-05-06 05:57 53.31407 -7.03537 17575 ft 371 kts 239°
2026-05-06 05:57 53.30012 -7.07197 18170 ft 374 kts 239°
2026-05-06 05:57 53.28606 -7.10878 18714 ft 378 kts 239°
2026-05-06 05:57 53.27215 -7.14513 19395 ft 375 kts 239°
2026-05-06 05:58 53.25810 -7.18181 20025 ft 375 kts 239°
2026-05-06 05:58 53.24399 -7.21865 20541 ft 378 kts 239°
2026-05-06 05:58 53.22972 -7.25580 21043 ft 382 kts 239°
2026-05-06 05:58 53.21521 -7.29308 21553 ft 385 kts 236°
2026-05-06 05:59 53.20305 -7.31564 21861 ft 391 kts 223°
2026-05-06 05:59 53.18010 -7.34032 22373 ft 398 kts 205°